STARLINK-1400, 45700

Orbit data source: Space-Track

STARLINK-1400, 45700 is a payload satellite owned by SpaceX/Seattle (US) in LEO that was launched on Thu, 04 Jun 2020 UTC via an FALCON 9 launch vehicle from the Air Force Eastern Test Range (AFETR). Payload-class satellites include a variety of spacecraft equipped with specific instruments for various scientific and technological missions. These include communications satellites like Starlink; space stations such as the ISS; scientific satellites like the Hubble; Earth observation satellites from companies like Planet Labs, Umbra, and HawkEye 360; GPS; miniature CubeSats for education and research; and military/defense satellites.

Loading next visibility...
Identifier
45700, 2020-035AV
Orbit
LEO
Country
Flag of USUS
Related business
Manufacturer
SpaceX/Seattle
Mission
Partially operational Commercial Communications
Bus & Motor
STARLINK, Unknown motor
Mass
260 kg wet, ~248 kg dry
Launch date (UTC)
2020-06-04 (6 years ago)
Launch vehicle
FALCON 9
Launch site
Air Force Eastern Test Range (AFETR)
Object type
Payload
Rocket body
Debris
Shape & HBR
Box + 1 Pan, 10.1 m
Radar Cross Section
13.562 m², Large (>1 m²)

Expand to show TLE details & history
Last TLE update: 5 hours ago

TLE from 5 hours ago
0 STARLINK-1400
1 45700U 20035AV  26038.27232185  .00143146  00000-0  29307-2 0  9997
2 45700  53.0534 168.3941 0003469 341.9643  18.1239 15.45109177314633
Epoch: 2026-02-07T06:32Z
TLE epoch observation values (Epoch: 2026-02-07T06:32:08.607Z)
Latitude
-0.00006°
Longitude
-67.04003°
Altitude
429.706 km
Speed
7.656 km/s
True Right ascension
11h 13m 34s
True Declination
0° 00' 00"
Sunlit
Object was in full shadow at epoch
Visualization orbit readout
Latitude
Unknown
Longitude
Unknown
Altitude
Unknown
Speed
Unknown
Apparent Right ascension
Unknown
Apparent Declination
Unknown
Sunlit
N/A
Visualization observer readout
Local Sidereal Time
14:03:06
Azimuth
Unknown
Elevation
Unknown
Doppler factor
Unknown
Orbital elements
Apogee altitude
433.695 km
Perigee altitude
428.97 km
Semi-major axis
6,809.47 km
Eccentricity
0.00035
Inclination
53.0534°
RAAN
168.3941°
Arg. of periapsis
341.9643°
True anomaly
18.13627°
Mean anomaly
18.1239°
Eccentric anomaly
18.13008°
Mean motion
3.86254 °/min
Orbital period
93.2 mins
BSTAR
0.0029307
Loading maneuver chart data...
Computing Atmospheric mass density...

Documentation

Showing up to 5 results
|